Location: *
(38.9800°N, 16.0500°E)
Time: 09:28:58
(UTC+00:00)

Cosmos 2298 Rocket - Pass Details

Date: 07 April 2020
Orbit: 777 x 783 km, 74.0° (Epoch: 29 May)

Event Time Altitude Azimuth Distance (km) Brightness Sun altitude
Exits shadow 01:43:47 57° 13° (NNE) 921 4.5 -30.1°
Drops below altitude 10° 01:47:59 10° 18° (NNE) 2,342 7.2 -29.5°
Sets 01:50:22 0° 19° (NNE) 3,274 8.1 -29.2°
